Lapse_Rate
8.8 8.8 8.7 9.3 9.3 8.8 7.5 7.3 7.0 7.2 7.7 6.0 4.7 0.6 2.3 5.1 5.8 5.0 5.2 2.6 3.1 4.0 4.8 5.3 5.7 5.2 6.4 6.5 6.5 6.8 6.9 6.5 6.1 6.8 7.1 7.6 7.2 7.5
9.0 8.9 9.0 9.1 9.2 8.8 7.7 7.8 7.3 7.0 7.0 6.9 3.9 2.0 1.2 2.1 0.6 4.8 5.0 3.5 2.8 3.5 4.3 4.3 3.9 3.9 4.7 5.8 5.8 5.8 6.3 6.0 5.9 5.9 6.6 7.2 5.6 5.7
8.9 8.9 9.0 9.2 8.7 8.9 8.9 8.9 8.2 7.6 6.8 4.9 4.6 4.9 2.9 4.9 2.0 1.2 5.9 4.9 3.6 3.5 3.8 3.9 3.7 3.7 4.2 5.1 4.9 4.9 5.2 5.0 5.0 4.9 5.0 5.4 5.6 5.7
8.9 9.0 9.0 9.4 9.1 9.1 9.3 8.6 8.5 7.9 7.5 6.1 5.1 5.0 5.1 3.7 2.5 1.8 4.9 5.1 5.4 3.3 3.6 3.8 3.5 3.8 4.0 4.4 4.3 4.1 4.7 4.7 4.6 4.5 4.7 5.2 5.4 5.4
8.7 8.8 8.9 9.1 8.9 8.9 9.2 8.6 8.4 8.4 7.5 7.1 6.8 5.6 5.3 4.2 3.2 3.1 0.9 5.5 5.5 4.4 3.5 3.4 3.8 3.3 3.2 3.6 3.9 3.7 3.9 4.1 3.9 4.2 4.1 4.5 4.6 5.2
7.7 8.6 8.8 9.0 8.9 8.9 8.7 9.1 8.8 8.1 7.7 8.2 8.0 6.5 6.4 4.5 4.1 4.1 3.5 4.2 5.8 5.4 3.2 4.3 3.9 3.3 3.1 3.5 3.2 3.2 3.2 3.4 3.6 3.9 4.0 3.9 4.1 4.3
8.2 8.5 8.8 9.0 9.1 9.2 9.3 8.9 8.8 8.3 8.2 8.0 8.0 8.3 7.2 4.0 5.2 3.4 4.8 1.8 5.5 5.0 4.3 4.3 4.1 3.9 3.4 2.9 3.2 2.3 2.7 2.9 2.9 3.4 3.9 3.6 3.9 4.1
7.6 7.8 7.6 7.9 9.0 8.9 9.0 9.1 8.9 8.1 7.9 8.1 8.2 8.3 8.3 6.5 4.4 4.9 4.3 6.0 6.3 4.7 5.1 4.7 4.3 4.1 3.8 3.9 3.6 2.6 2.3 2.6 2.7 3.5 3.9 3.3 3.9 4.1
7.5 7.8 8.4 9.0 8.9 8.3 8.9 9.0 9.0 8.9 8.7 8.3 8.1 8.4 8.3 8.3 5.7 4.3 5.4 6.5 5.9 3.7 3.4 5.4 4.0 4.5 4.0 3.8 2.4 1.8 1.7 2.1 2.3 3.1 3.1 3.5 3.3 3.3
8.4 8.5 8.7 8.8 9.0 8.9 8.9 8.8 8.8 8.7 8.4 8.5 8.4 8.2 8.7 8.5 7.0 5.7 5.4 5.0 5.0 4.8 4.6 5.8 4.1 4.9 4.0 4.1 1.5 1.3 1.4 1.3 1.5 1.9 3.0 2.9 2.5 2.9
8.6 8.3 8.0 7.8 8.0 9.1 8.5 7.6 8.1 8.6 8.8 9.2 9.2 9.2 9.0 9.0 8.7 7.3 5.7 5.5 5.2 4.7 4.5 5.1 3.9 5.1 4.8 4.2 3.3 1.3 1.2 1.1 1.6 1.8 2.2 2.3 2.3 2.5
7.4 7.5 7.8 8.8 8.4 9.0 8.1 7.5 7.7 8.4 8.7 8.8 8.9 9.1 9.2 8.9 8.7 8.1 7.2 5.8 4.9 6.0 4.9 3.9 3.2 2.1 1.6 0.6 4.1 2.3 1.8 1.0 1.8 1.9 2.2 2.2 2.1 3.7
6.3 6.4 6.4 6.6 7.8 8.9 8.5 7.3 7.5 8.0 7.8 8.4 8.5 8.5 8.7 8.8 8.7 8.2 7.7 6.5 5.5 5.7 4.5 3.7 0.5 -0.2 -0.9 -1.3 -1.4 2.5 2.9 2.0 2.2 2.3 1.9 1.7 2.0 4.1
6.9 6.6 6.7 7.8 8.0 8.4 8.7 8.7 8.4 7.8 7.0 7.1 7.7 7.7 7.8 8.4 8.7 8.4 8.0 7.6 7.2 5.5 4.7 6.0 2.5 3.4 2.0 -1.3 0.7 -3.2 2.8 2.9 2.8 3.1 2.6 2.4 1.5 2.6
7.2 7.4 7.5 7.5 7.3 7.5 8.8 8.3 8.7 8.4 8.1 7.4 7.3 7.2 7.8 7.8 7.8 7.9 8.0 7.8 6.8 6.5 5.9 5.6 3.7 2.5 3.6 1.6 -1.0 -0.9 1.4 1.7 2.1 2.8 2.5 2.5 2.0 2.2
7.1 6.2 6.4 6.3 6.2 6.6 7.3 7.7 8.4 8.1 7.8 7.7 7.8 8.0 7.5 7.5 7.4 7.3 7.2 6.9 6.3 6.3 4.5 3.1 2.6 3.6 2.2 3.0 1.0 -0.5 -0.1 0.7 0.4 2.2 1.7 2.1 1.4 1.6
6.7 6.2 6.0 5.9 5.7 5.5 5.1 5.2 4.9 5.8 6.5 7.2 7.5 7.5 7.3 7.8 7.6 7.4 7.4 7.0 6.7 6.7 5.5 3.9 1.8 4.0 3.8 2.7 2.9 2.9 0.7 -1.9 0.7 0.6 0.6 -0.1 -0.8 0.1
5.8 5.7 5.9 6.0 6.1 6.1 6.1 5.8 5.7 5.8 5.9 6.1 6.0 6.2 6.3 6.7 7.0 7.1 7.3 7.1 7.2 7.0 6.9 5.0 3.9 3.6 2.9 2.1 2.3 2.9 2.5 1.2 -0.2 -1.0 1.1 0.7 -0.9 -2.9
5.5 5.6 5.7 5.8 5.9 6.0 6.1 6.3 6.1 6.2 6.3 6.2 6.4 6.3 6.8 7.4 7.7 7.1 7.0 7.1 7.3 7.1 6.7 6.6 6.0 5.7 5.7 5.9 0.8 0.8 2.8 -0.6 -0.8 -0.8 0.6 0.6 0.3 -3.3
5.5 5.4 5.5 5.5 5.5 5.6 5.8 5.9 6.0 6.0 6.2 6.5 6.7 6.8 6.6 6.6 7.3 7.3 7.5 7.3 7.3 7.5 6.7 6.5 6.3 6.0 5.8 5.7 3.3 0.8 -1.0 0.1 -0.4 -0.3 -3.3 -3.6 -2.8 -3.0
5.5 5.1 5.2 5.2 5.2 5.3 5.4 5.5 5.7 5.7 6.2 6.7 7.1 7.2 7.2 7.0 6.6 7.5 7.7 8.2 7.9 7.5 7.3 7.0 6.7 6.5 3.0 1.4 2.5 0.4 -1.2 -0.8 0.2 -0.1 -2.0 -0.2 -2.3 -2.6
5.6 5.2 5.0 5.0 5.0 5.1 5.2 5.3 5.5 5.5 5.9 6.4 7.0 7.4 7.5 7.5 7.2 7.2 7.8 7.9 7.7 7.5 7.6 7.6 6.5 5.8 4.1 5.0 5.5 1.2 -0.8 -1.3 -0.4 -0.2 -0.6 -1.9 -0.7 -0.5
5.5 5.2 4.9 4.8 5.0 5.0 5.1 5.3 5.4 5.5 6.4 6.9 7.1 7.1 7.2 7.3 7.4 7.7 8.0 8.0 8.0 7.5 7.6 7.4 7.0 6.1 5.7 5.2 3.2 1.1 -0.9 -1.2 -0.7 -0.4 -0.8 -1.2 -1.5 -1.4
Wind_Speed
13 13 11 10 10 8 8 9 6 6 8 3 4 12 9 5 16 18 23 29 35 38 39 40 38 37 36 37 35 36 34 33 32 32 32 31 29 26
10 13 12 10 11 10 9 8 8 7 7 5 4 16 11 12 16 15 23 23 32 38 38 36 39 35 39 37 36 36 35 33 33 32 33 31 30 28
14 14 15 14 11 9 8 9 9 9 11 12 10 11 13 13 11 16 22 17 19 33 37 37 37 36 39 40 38 36 36 36 36 35 34 33 32 28
15 15 15 11 15 13 10 12 11 11 9 16 12 10 11 11 12 15 13 11 15 27 33 35 38 39 38 42 40 37 36 36 37 35 34 32 33 32
16 16 15 15 14 12 12 11 10 10 9 9 10 10 9 8 9 10 14 15 15 27 36 35 36 38 40 33 36 38 36 35 35 34 33 33 33 33
16 16 16 16 16 14 13 13 11 9 10 10 9 10 8 7 7 8 10 9 14 15 20 27 31 34 37 40 37 35 37 37 35 31 34 34 35 33
16 16 16 18 22 19 11 13 13 10 9 10 10 9 8 7 7 5 9 10 13 11 12 12 12 14 16 34 35 39 39 40 37 38 36 35 34 35
15 15 15 20 20 25 26 27 20 13 12 9 11 11 12 8 3 6 7 9 8 8 13 12 12 12 13 16 31 37 38 38 38 39 37 34 36 36
14 14 13 12 17 15 20 24 24 26 24 14 13 13 12 9 4 5 7 9 7 10 9 10 10 12 11 13 30 34 37 39 38 35 35 37 36 34
15 16 16 16 15 15 15 15 16 15 15 12 12 12 12 9 6 5 8 10 12 10 8 6 7 10 10 10 28 31 34 36 38 37 38 36 34 34
14 15 15 16 20 24 15 15 15 14 16 23 24 24 23 22 17 7 7 5 8 7 6 3 5 8 10 10 11 29 33 35 33 36 36 35 34 32
13 14 23 19 24 24 15 12 13 14 13 13 11 15 18 16 19 14 8 6 6 7 3 4 3 5 2 1 9 10 12 31 33 33 34 35 35 23
10 10 10 22 24 24 24 13 15 14 16 12 10 9 10 10 8 8 10 8 8 10 8 6 1 3 3 2 1 9 12 11 12 18 32 33 34 28
5 8 11 21 22 23 18 21 23 21 11 10 9 9 9 9 7 7 10 11 11 15 11 4 3 2 3 1 4 0 11 11 12 12 11 22 31 34
7 12 14 13 17 21 24 23 21 10 8 10 10 8 7 7 7 6 8 10 11 11 12 12 7 7 6 3 2 6 6 7 10 10 11 12 12 11
11 7 10 10 10 9 12 13 10 8 8 8 8 6 6 6 7 6 7 7 8 10 9 8 6 9 2 4 2 4 6 7 7 10 10 10 9 11
9 7 6 7 6 6 6 4 3 3 5 7 8 8 8 9 8 7 8 7 9 9 7 5 4 10 8 5 5 5 7 4 11 10 8 7 6 10
7 6 7 7 7 7 6 6 5 6 6 6 7 6 7 7 8 7 7 9 11 12 10 5 5 3 1 3 6 6 7 8 7 10 9 10 9 5
7 7 7 7 7 7 6 6 7 7 7 7 7 7 8 8 11 8 9 10 12 13 11 7 7 8 10 11 2 4 8 4 7 9 10 10 10 9
7 8 8 8 7 7 7 7 7 7 7 7 7 7 7 9 9 10 11 11 11 12 11 9 8 12 13 13 4 2 5 6 7 9 4 3 7 16
8 8 8 8 8 8 8 8 8 8 8 7 8 9 9 9 11 11 12 21 19 11 13 13 13 18 2 6 4 2 1 4 6 13 9 7 5 5
8 8 8 8 8 8 8 8 8 9 8 8 8 8 9 10 11 13 13 13 13 13 14 12 8 8 7 12 11 6 4 3 11 14 10 7 6 9
9 9 9 9 9 9 9 9 9 10 9 9 9 9 10 10 12 13 13 14 13 13 13 12 10 8 12 11 8 9 10 10 7 8 3 8 12 11
Wind_Direction
266 263 264 263 262 264 278 275 280 283 293 293 320 21 345 269 216 200 206 198 196 199 205 204 207 198 200 198 196 193 194 194 194 194 194 195 202 206
262 262 262 262 261 266 259 270 271 273 273 293 291 323 331 315 312 241 201 187 198 200 205 205 201 187 198 194 193 190 191 194 189 194 193 197 205 207
262 263 264 262 260 257 264 264 264 261 262 279 287 301 309 307 321 333 204 197 196 202 206 204 199 193 193 194 190 189 190 189 190 194 195 196 198 206
260 258 261 262 260 260 257 258 262 264 267 275 288 291 281 313 311 297 254 195 201 198 210 209 202 198 197 196 189 186 189 189 191 193 193 196 196 201
258 256 256 256 255 255 253 254 259 263 268 274 281 284 294 295 311 317 316 200 203 199 203 207 203 197 194 194 191 187 185 187 190 191 191 193 196 198
253 253 252 251 251 253 254 254 254 262 273 270 273 280 287 295 297 305 319 311 204 194 199 202 201 199 193 192 193 184 183 183 190 195 191 194 194 198
249 250 249 249 249 247 247 250 252 251 256 269 282 281 279 297 306 343 308 317 231 188 192 194 194 199 197 193 193 182 184 188 191 200 196 195 196 197
243 247 247 250 254 250 247 248 246 244 244 256 266 272 284 292 308 304 330 315 308 190 182 193 189 192 190 195 195 186 184 191 194 199 196 194 197 200
233 236 239 237 240 241 251 254 255 256 255 255 260 265 276 283 291 301 305 293 287 296 300 186 186 195 189 192 182 183 186 187 190 197 195 195 196 198
247 247 246 247 242 243 248 251 254 258 261 265 260 265 267 273 289 289 278 301 295 287 272 221 174 200 185 189 182 184 185 189 191 194 196 195 194 198
250 246 242 245 242 245 245 244 246 248 251 254 256 256 259 260 258 259 255 255 292 299 305 284 176 180 186 190 186 187 188 187 194 191 194 194 195 196
246 243 244 241 239 243 242 238 245 248 246 247 250 258 262 261 260 253 254 246 264 295 269 225 159 145 158 298 189 187 189 191 192 193 195 196 194 201
240 242 238 240 246 248 241 228 232 240 244 243 245 251 246 240 240 240 230 227 239 247 254 352 354 300 87 138 106 181 190 187 195 198 196 193 191 194
269 240 242 244 243 245 247 244 241 240 238 233 230 238 243 242 239 241 237 231 231 243 269 262 274 317 24 257 156 65 190 188 189 193 194 197 188 184
331 318 315 304 277 245 247 241 243 245 250 242 235 244 243 238 248 232 250 254 253 261 250 241 225 261 235 191 216 171 159 190 182 186 185 184 186 187
347 335 339 340 321 338 239 238 241 235 239 244 247 240 239 245 241 243 240 244 246 248 253 242 223 226 199 225 193 190 164 171 186 185 182 189 179 182
356 350 351 356 353 352 347 339 324 300 258 256 251 244 238 234 237 235 238 248 250 258 259 240 225 236 246 208 241 214 188 153 187 175 164 168 180 184
357 353 348 347 345 340 333 324 314 296 278 273 270 266 260 245 234 222 232 242 242 243 238 222 182 155 158 252 194 185 197 189 170 168 183 182 181 188
355 346 340 336 331 325 320 314 306 295 288 273 263 261 259 258 250 239 221 222 239 246 242 214 204 195 204 221 174 240 195 171 157 167 175 186 188 187
347 337 331 326 322 317 313 305 298 291 278 269 255 250 252 255 253 244 238 231 231 244 249 238 215 223 210 211 167 194 301 160 171 166 136 105 73 114
334 327 323 319 315 311 308 302 294 287 279 268 258 247 240 237 245 247 244 239 232 228 232 230 224 226 206 92 146 183 41 72 175 166 156 149 133 145
326 321 317 313 310 308 305 301 296 292 282 272 263 256 249 240 241 244 243 239 232 230 232 237 231 200 188 196 200 152 119 96 89 117 102 98 183 164
321 317 314 310 309 308 305 303 298 290 283 276 270 265 255 248 240 239 239 237 233 227 226 229 221 217 205 205 154 156 142 134 139 117 50 95 94 95